sat.trackr.live / text

‹ back to catalog

KINEIS-1D

NORAD 60082 · 2024-114D

PAYLOAD ACTIVE UNKNOWN

§ Identity

Operator
Country
FR
Launch date
2024-06-20
Launch site
RLLB
Launch vehicle
Mass (kg)
RCS (m²)

External: N2YO · Heavens-Above · Gunter

§ Orbital elements

Epoch: 2026-09-22T23:27:52.775424Z

Period
97.53 min
Inclination
97.9869°
Eccentricity
0.0000785
Mean motion
14.76428117 rev/d
Perigee alt
640.1 km
Apogee alt
641.2 km
Semi-major
7,018.8 km
B*
5.5139e-5
RAAN
285.0513°
Arg perigee
161.4335°
Mean anomaly
198.6904°
Rev number
12,155

§ Raw data

KINEIS-1D1 60082U 24114D   26265.97769416  .00000333  00000+0  55139-4 0  99932 60082  97.9869 285.0513 0000785 161.4335 198.6904 14.76428117121555

JSON: /api/v1/satellites/60082 · /tle

For live sub-satellite position, see the globe view (requires WebGL).

§ Visibility from observer

Set your observer location to see the next 7 days of passes ≥ 10°. The values pass through the URL so the page stays shareable.

No JS? Fill the form by hand. The geolocation button needs JavaScript.

§ Radio — SatNOGS DB

ModeDescriptionDownlinkUplink
BPSK S-band telemetry 2.265 GHz
BPSK S-band telemetry 2.264 GHz

2 transmitters · refreshed weekly from db.satnogs.org